Home > Weather > Sarnen > Past weeks

Flag for Switzerland Past Weather in Sarnen, Obwalden, Switzerland — Yesterday and Last 2 Weeks

Now
74 °F

Mild.


Feels Like: 75 °F
Forecast: 58 / 80 °F
Wind: 2 mph from Southeast

Location: Giswil

Current Time: Jul 25, 2016 at 7:54:45 PM

Latest Report: Jul 25, 2016 at 7:00 PM


Visibility: N/A

Pressure: 30.06 "Hg

Humidity: 75%

Dew Point: 66 °F

Location of SarnenLocation

Past Weather in Sarnen — Graph

°F

Sarnen Temperature Yesterday

Maximum temperature yesterday: 78 °F (at 5:00 PM)
Minimum temperature yesterday: 61 °F (at 6:00 AM)
Average temperature yesterday: 68 °F

High & Low Weather Summary for the Past Weeks

 TemperatureHumidityPressure
High88 °F (Jul 20, 5:00 PM)100% (Jul 16, 5:00 AM)30.39 "Hg (Jul 16, 5:00 AM)
Low44 °F (Jul 16, 6:00 AM)38% (Jul 20, 4:00 PM)29.85 "Hg (Jul 10, 7:00 PM)
Average65 °F80%30.09 "Hg
* Reported Jul 10 6:00 PM — Jul 25 6:00 PM, Sarnen, Weather by CustomWeather, © 2016

Note: Actual official high and low records may vary slightly from our data, if they occured in-between our weather recording intervals... More about our weather records

Advertising

Sarnen Weather History for the Previous 24 Hours

Scroll right to see more
 ConditionsComfort  
Time TempWeatherWind HumidityBarometerVisibility
6:00 PM
Mon, Jul 25
76 °FMild.1 mph66%30.05 "HgN/A
5:00 PM75 °FMild.1 mph67%30.05 "HgN/A
4:00 PM76 °FMild.2 mph62%30.06 "HgN/A
3:00 PM73 °FMild.1 mph66%30.08 "HgN/A
2:00 PM73 °FMild.No wind73%30.08 "HgN/A
1:00 PM72 °FMild.2 mph74%30.09 "HgN/A
12:00 PM71 °FMild.3 mph75%30.09 "HgN/A
11:00 AM71 °FMild.2 mph79%30.10 "HgN/A
10:00 AM69 °FMild.2 mph83%30.11 "HgN/A
9:00 AM66 °FMild.No wind92%30.12 "HgN/A
8:00 AM64 °FMild.No wind98%30.12 "HgN/A
7:00 AM63 °FMild.No wind99%30.12 "HgN/A
6:00 AM63 °FMild.1 mph99%30.12 "HgN/A
5:00 AM62 °FMild.1 mph99%30.12 "HgN/A
4:00 AM63 °FMild.1 mph100%30.12 "HgN/A
3:00 AM63 °FMild.No wind99%30.12 "HgN/A
2:00 AM64 °FMild.No wind99%30.13 "HgN/A
1:00 AM65 °FMild.1 mph100%30.14 "HgN/A
12:00 AM65 °FMild.No wind99%30.15 "HgN/A
11:00 PM
Sun, Jul 24
66 °FMild.2 mph97%30.14 "HgN/A
10:00 PM69 °FMild.7 mph87%30.09 "HgN/A
9:00 PM71 °FMild.3 mph83%30.06 "HgN/A
8:00 PM71 °FMild.3 mph82%30.05 "HgN/A
7:00 PM72 °FMild.3 mph83%30.04 "HgN/A
Weather by CustomWeather, © 2016

See weather overviewHow to use our weather pages